Flag for U.S.A. Weather past 2 weeks in Providence, Rhode Island, U.S.A.

Now
70 °F

Passing clouds.


Feels Like: 71 °F
Forecast: 68 / 87 °F
Wind: 6 mph from Southwest

Location: Green State Airport

Current Time: Jul 23, 2014 at 7:02:40 AM

Latest Report: Jul 23, 2014 at 5:51 AM


Visibility: 10 mi

Pressure: 29.97 "Hg

Humidity: 79%

Dew point: 63 °F

Location of ProvidenceLocation

Historic Weather in Providence — Graph

°F

Providence temperature yesterday

Maximum temperature yesterday: 84 °F (at 11:51 AM)
Minimum temperature yesterday: 64 °F (at 1:51 AM)
Average temperature yesterday: 72 °F

Past Weeks' High & Low Weather Summary

 TemperatureHumidityPressure
High90 °F (Jul 8, 1:51 PM)97% (Jul 14, 10:51 PM)30.27 "Hg (Jul 14, 10:51 PM)
Low60 °F (Jul 12, 5:51 AM)40% (Jul 12, 12:51 PM)29.71 "Hg (Jul 9, 12:51 AM)
Average73 °F72%30.04 "Hg
* Reported Jul 8 5:51 AM — Jul 23 5:51 AM, Providence, Weather by CustomWeather, © 2014

Note: Actual official high and low records may vary slightly from our data, if they occured in-between our weather recording intervals... More about our weather records

Advertising

Providence weather history for previous 24 hours

 ConditionsComfort  
Time TempWeatherWind HumidityBarometerVisibility
5:51 AM
Jul 23
70 °FPassing clouds.6 mph79%29.97 "Hg10 mi
4:51 AM70 °FClear.6 mph76%29.98 "Hg10 mi
3:51 AM71 °FClear.3 mph73%29.98 "Hg10 mi
1:51 AM71 °FClear.8 mph73%30.01 "Hg10 mi
12:51 AM72 °FClear.7 mph71%30.02 "Hg10 mi
11:51 PM
Jul 22
73 °FClear.6 mph71%30.04 "Hg10 mi
10:51 PM74 °FClear.10 mph71%30.03 "Hg10 mi
9:51 PM74 °FPassing clouds.9 mph74%30.05 "Hg10 mi
8:51 PM75 °FScattered clouds.9 mph74%30.06 "Hg10 mi
7:51 PM78 °FPassing clouds.12 mph69%30.05 "Hg10 mi
12:51 PM82 °FScattered clouds.9 mph65%30.11 "Hg10 mi
11:51 AM84 °FPassing clouds.10 mph61%30.12 "Hg10 mi
10:51 AM81 °FSunny.N/A65%30.12 "Hg10 mi
9:51 AM79 °FSunny.6 mph65%30.13 "Hg10 mi
8:51 AM76 °FPassing clouds.7 mph69%30.15 "Hg10 mi
7:51 AM71 °FPassing clouds.8 mph76%30.16 "Hg10 mi
Weather by CustomWeather, © 2014

See weather overviewHow to use our weather pages